GEESAT 6-02

导读 | 豆包AI

GEESAT 6-02是中国吉利控股集团旗下商业航天企业时空道宇设计研发的低轨物联网星座GEESATCOM卫星,于2025年9月24日成功发射,属于GEESAT星座第六批组网卫星。该次发射完成了GEESAT星座一期部署,目前星座已有64颗卫星在轨,具备100%在轨可靠性与网络可靠性,可为全球除南北极外任意区域提供实时物联网通信覆盖服务。

Basic Information
目录编号:
65714
目录名称:
GEESAT 6-02
国际标识:
2025-214C
轨道中心:
EARTH
卫星名称:
GEESAT 6-02
卫星全名:
GEESAT 6-02
卫星状态:
在轨 (已飞行171 天)
发射日期:
2025-09-24 UTC
国别 :
中国 (CN)
星等 :
--
Orbit Information
数据来源 国际轨道数据
星历时间: 2026-03-13T17:14:23+0800
16小时前
查看轨道信息
半长轴: 6997.951km
偏心率: 0.0010166
轨道倾角: 49.984°
近地点辐角 208.164°
升交点赤经 32.301°
平近点角 151.875°
近地点: 612.699km
远地点: 626.929km
周期: 97.099分钟
每日圈数: 14.830182
Detailed Information
使用方式:
暂无
2D Orbit Map
3D Orbit Map
Orbit Altitude Analysis Chart
Orbit Inclination Analysis Chart
Orbit Comprehensive Analysis Chart
View Comprehensive Chart